Time,TemperatureF,DewpointF,PressureIn,WindDirection,WindDirectionDegrees,WindSpeedMPH,WindSpeedGustMPH,Humidity,HourlyPrecipIn,Conditions,Clouds,dailyrainin,SoftwareType,DateUTC
2013-01-29 00:00:00,35.3,35.3,28.66,SE,143,6.0,13.0,100,0.05,,,0.00,VWS V15.00,2013-01-29 06:00:00,
2013-01-29 00:02:00,35.4,35.4,28.66,SE,134,2.0,13.0,100,0.07,,,0.00,VWS V14.01,2013-01-29 06:02:00,
2013-01-29 00:07:00,35.4,35.4,28.64,ESE,113,4.0,13.0,100,0.08,,,0.03,VWS V14.01,2013-01-29 06:07:00,
2013-01-29 00:10:00,35.4,35.4,28.66,SE,135,4.0,14.0,100,0.15,,CLR,0.15,VWS V15.00,2013-01-29 06:10:00,
2013-01-29 00:13:00,35.7,35.7,28.66,SSE,156,3.0,9.0,100,0.10,,,0.05,VWS V14.01,2013-01-29 06:13:00,
2013-01-29 00:20:00,35.7,35.7,28.66,SE,135,4.0,14.0,100,0.14,,CLR,0.18,VWS V15.00,2013-01-29 06:20:00,
2013-01-29 00:24:00,35.7,35.7,28.66,SE,135,4.0,14.0,100,0.14,,,0.18,VWS V14.01,2013-01-29 06:24:00,
2013-01-29 00:29:00,36.1,36.1,28.66,SE,125,6.0,6.0,100,0.13,,,0.19,VWS V14.01,2013-01-29 06:29:00,
2013-01-29 00:30:00,35.1,35.1,28.67,SE,135,4.0,10.0,100,0.11,,,0.06,VWS V15.00,2013-01-29 06:30:00,
2013-01-29 00:34:00,36.2,36.2,28.68,South,179,2.0,10.0,100,0.16,,,0.22,VWS V14.01,2013-01-29 06:34:00,
2013-01-29 00:39:00,36.3,36.3,28.67,SSW,197,0.0,10.0,100,0.20,,,0.26,VWS V14.01,2013-01-29 06:39:00,
2013-01-29 00:40:00,35.1,35.1,28.67,SE,135,3.0,13.0,100,0.11,,,0.06,VWS V15.00,2013-01-29 06:40:00,
2013-01-29 00:44:00,36.3,36.3,28.67,SSE,152,3.0,10.0,100,0.23,,,0.29,VWS V14.01,2013-01-29 06:44:00,
2013-01-29 00:49:00,36.6,36.6,28.67,SE,143,5.0,10.0,100,0.27,,,0.33,VWS V14.01,2013-01-29 06:49:00,
2013-01-29 00:50:00,35.1,35.1,28.68,SE,135,4.0,11.0,100,0.15,,,0.10,VWS V15.00,2013-01-29 06:50:00,
2013-01-29 00:54:00,36.4,36.4,28.65,ESE,113,5.0,11.0,100,0.35,,,0.41,VWS V14.01,2013-01-29 06:54:00,
2013-01-29 00:59:00,36.6,36.6,28.63,SE,146,9.0,11.0,100,0.40,,,0.46,VWS V14.01,2013-01-29 06:59:00,
2013-01-29 01:00:00,35.2,35.2,28.66,SSE,158,5.0,14.0,100,0.12,,,0.11,VWS V15.00,2013-01-29 07:00:00,
2013-01-29 01:04:00,36.6,36.6,28.64,South,171,0.0,11.0,100,0.42,,,0.48,VWS V14.01,2013-01-29 07:04:00,
2013-01-29 01:09:00,36.7,36.7,28.64,South,174,4.0,11.0,100,0.45,,,0.51,VWS V14.01,2013-01-29 07:09:00,
2013-01-29 01:10:00,35.4,35.4,28.66,SE,135,4.0,14.0,100,0.15,,,0.15,VWS V15.00,2013-01-29 07:10:00,
2013-01-29 01:14:00,36.9,36.9,28.63,South,179,0.0,11.0,100,0.47,,,0.53,VWS V14.01,2013-01-29 07:14:00,
2013-01-29 01:19:00,37.1,37.1,28.64,SSE,168,8.0,11.0,100,0.48,,,0.54,VWS V14.01,2013-01-29 07:19:00,
2013-01-29 01:20:00,35.7,35.7,28.66,SE,135,4.0,14.0,100,0.14,,,0.18,VWS V15.00,2013-01-29 07:20:00,
2013-01-29 01:24:00,37.3,37.3,28.63,South,175,4.0,11.0,100,0.50,,,0.56,VWS V14.01,2013-01-29 07:24:00,
2013-01-29 01:29:00,37.7,37.7,28.62,South,191,3.0,11.0,100,0.52,,,0.58,VWS V14.01,2013-01-29 07:29:00,
2013-01-29 01:30:00,37.8,37.8,28.63,SSW,198,1.0,11.0,100,0.53,,,0.59,VWS V15.00,2013-01-29 07:30:00,
2013-01-29 01:34:00,38.3,38.3,28.63,SSE,161,2.0,7.0,100,0.53,,,0.59,VWS V14.01,2013-01-29 07:34:00,
2013-01-29 01:39:00,38.5,38.5,28.64,SSE,162,2.0,7.0,100,0.54,,,0.60,VWS V14.01,2013-01-29 07:39:00,
2013-01-29 01:40:00,38.5,38.5,28.63,SSE,154,1.0,7.0,100,0.55,,,0.61,VWS V15.00,2013-01-29 07:40:00,
2013-01-29 01:44:00,38.8,38.8,28.62,SSE,148,5.0,10.0,100,0.57,,,0.63,VWS V14.01,2013-01-29 07:44:00,
2013-01-29 01:49:00,39.0,39.0,28.62,SE,125,2.0,12.0,100,0.57,,,0.63,VWS V14.01,2013-01-29 07:49:00,
2013-01-29 01:50:00,39.0,39.0,28.62,South,181,9.0,12.0,100,0.57,,,0.63,VWS V15.00,2013-01-29 07:50:00,
2013-01-29 01:54:00,39.3,39.3,28.63,South,174,1.0,10.0,100,0.54,,,0.64,VWS V14.01,2013-01-29 07:54:00,
2013-01-29 01:59:00,39.4,39.4,28.62,SSW,202,3.0,11.0,100,0.59,,,0.69,VWS V14.01,2013-01-29 07:59:00,
2013-01-29 02:00:00,39.5,39.5,28.62,SSE,156,4.0,11.0,100,0.59,,,0.69,VWS V15.00,2013-01-29 08:00:00,
2013-01-29 02:04:00,39.7,39.7,28.60,SE,146,6.0,9.0,100,0.61,,,0.72,VWS V14.01,2013-01-29 08:04:00,
2013-01-29 02:09:00,40.0,40.0,28.61,SSE,158,6.0,11.0,100,0.65,,,0.76,VWS V14.01,2013-01-29 08:09:00,
2013-01-29 02:10:00,40.0,40.0,28.61,SSE,160,3.0,11.0,100,0.66,,,0.77,VWS V15.00,2013-01-29 08:10:00,
2013-01-29 02:14:00,40.2,40.2,28.61,SSE,166,5.0,10.0,100,0.63,,,0.78,VWS V14.01,2013-01-29 08:14:00,
2013-01-29 02:19:00,40.4,40.4,28.61,SSE,152,3.0,11.0,100,0.63,,,0.78,VWS V14.01,2013-01-29 08:19:00,
2013-01-29 02:20:00,40.4,40.4,28.61,SE,126,4.0,11.0,100,0.63,,,0.78,VWS V15.00,2013-01-29 08:20:00,
2013-01-29 02:24:00,40.5,40.5,28.58,SE,133,3.0,11.0,100,0.61,,,0.79,VWS V14.01,2013-01-29 08:24:00,
2013-01-29 02:29:00,40.7,40.7,28.58,SE,136,7.0,11.0,100,0.70,,,0.88,VWS V14.01,2013-01-29 08:29:00,
2013-01-29 02:30:00,40.7,40.7,28.58,SE,143,5.0,11.0,100,0.71,,,0.89,VWS V15.00,2013-01-29 08:30:00,
2013-01-29 02:34:00,40.9,40.9,28.58,SSE,165,4.0,10.0,100,0.35,,,0.94,VWS V14.01,2013-01-29 08:34:00,
2013-01-29 02:39:00,41.0,41.0,28.59,SSE,151,9.0,11.0,100,0.37,,-RA,0.96,VWS V14.01,2013-01-29 08:39:00,
2013-01-29 02:40:00,41.0,41.0,28.59,SE,143,8.0,11.0,100,0.37,,,0.96,VWS V15.00,2013-01-29 08:40:00,
2013-01-29 02:44:00,40.9,40.9,28.59,SSE,159,7.0,9.0,100,0.38,,-RA,0.99,VWS V14.01,2013-01-29 08:44:00,
2013-01-29 02:49:00,40.8,40.8,28.59,SSE,154,5.0,9.0,100,0.41,,-RA,1.02,VWS V14.01,2013-01-29 08:49:00,
2013-01-29 02:50:00,40.8,40.8,28.59,SSE,156,4.0,9.0,100,0.41,,,1.02,VWS V15.00,2013-01-29 08:50:00,
2013-01-29 02:54:00,40.7,40.7,28.59,South,169,3.0,10.0,100,0.40,,-RA,1.03,VWS V14.01,2013-01-29 08:54:00,
2013-01-29 02:59:00,40.6,40.6,28.58,SSE,153,9.0,10.0,100,0.40,,-RA,1.03,VWS V14.01,2013-01-29 08:59:00,
2013-01-29 03:00:00,40.5,40.5,28.58,SSE,161,5.0,10.0,100,0.40,,,1.03,VWS V15.00,2013-01-29 09:00:00,
2013-01-29 03:04:00,40.5,40.5,28.58,South,172,3.0,9.0,100,0.34,,-RA,1.03,VWS V14.01,2013-01-29 09:04:00,
2013-01-29 03:09:00,40.4,40.4,28.58,SE,142,10.0,13.0,100,0.34,,-RA,1.03,VWS V14.01,2013-01-29 09:09:00,
2013-01-29 03:10:00,40.4,40.4,28.57,SSE,162,5.0,13.0,100,0.35,,,1.04,VWS V15.00,2013-01-29 09:10:00,
2013-01-29 03:14:00,40.3,40.3,28.57,South,177,5.0,12.0,100,0.27,,-RA,1.04,VWS V14.01,2013-01-29 09:14:00,
2013-01-29 03:19:00,40.3,40.3,28.56,SSE,154,4.0,13.0,100,0.27,,-RA,1.04,VWS V14.01,2013-01-29 09:19:00,
2013-01-29 03:20:00,40.3,40.3,28.56,SSE,148,6.0,13.0,100,0.27,,,1.04,VWS V15.00,2013-01-29 09:20:00,
2013-01-29 03:24:00,40.3,40.3,28.57,South,186,3.0,8.0,100,0.26,,-RA,1.04,VWS V14.01,2013-01-29 09:24:00,
2013-01-29 03:29:00,40.2,40.2,28.56,South,180,1.0,11.0,100,0.26,,-RA,1.04,VWS V14.01,2013-01-29 09:29:00,
2013-01-29 03:30:00,40.2,40.2,28.56,SSE,152,5.0,11.0,100,0.26,,,1.04,VWS V15.00,2013-01-29 09:30:00,
2013-01-29 03:34:00,40.2,40.2,28.56,SSE,168,9.0,12.0,100,0.15,,-RA,1.04,VWS V14.01,2013-01-29 09:34:00,
2013-01-29 03:39:00,40.3,40.3,28.56,South,169,7.0,12.0,100,0.15,,-RA,1.04,VWS V14.01,2013-01-29 09:39:00,
2013-01-29 03:40:00,40.3,40.3,28.56,SSE,158,8.0,12.0,100,0.15,,,1.04,VWS V15.00,2013-01-29 09:40:00,
2013-01-29 03:44:00,40.3,40.3,28.55,SE,141,3.0,12.0,100,0.08,,-RA,1.04,VWS V14.01,2013-01-29 09:44:00,
2013-01-29 03:49:00,40.4,40.4,28.55,South,172,4.0,12.0,100,0.08,,-RA,1.04,VWS V14.01,2013-01-29 09:49:00,
2013-01-29 03:50:00,40.4,40.4,28.55,SE,131,9.0,12.0,100,0.08,,,1.04,VWS V15.00,2013-01-29 09:50:00,
2013-01-29 03:54:00,40.4,40.4,28.55,South,182,0.0,10.0,100,0.02,,-RA,1.04,VWS V14.01,2013-01-29 09:54:00,
2013-01-29 03:59:00,40.4,40.4,28.54,SSE,161,2.0,11.0,100,0.02,,-RA,1.04,VWS V14.01,2013-01-29 09:59:00,
2013-01-29 04:00:00,40.4,40.4,28.55,SE,144,5.0,11.0,100,0.02,,,1.04,VWS V15.00,2013-01-29 10:00:00,
2013-01-29 04:04:00,40.3,40.3,28.55,South,182,6.0,14.0,100,0.01,,-RA,1.04,VWS V14.01,2013-01-29 10:04:00,
2013-01-29 04:09:00,40.3,40.3,28.54,South,189,1.0,14.0,100,0.01,,-RA,1.04,VWS V14.01,2013-01-29 10:09:00,
2013-01-29 04:10:00,40.3,40.3,28.54,SSE,164,7.0,14.0,100,0.01,,,1.04,VWS V15.00,2013-01-29 10:10:00,
2013-01-29 04:14:00,40.2,40.2,28.53,SSE,163,3.0,14.0,100,0.00,,-RA,1.04,VWS V14.01,2013-01-29 10:14:00,
2013-01-29 04:19:00,40.2,40.2,28.53,SSW,194,2.0,15.0,100,0.00,,-RA,1.04,VWS V14.01,2013-01-29 10:19:00,
2013-01-29 04:20:00,39.5,39.5,28.51,SSE,153,4.0,10.0,100,0.00,,CLR,1.04,VWS V15.00,2013-01-29 10:20:00,
2013-01-29 04:24:00,40.1,40.1,28.53,SE,137,8.0,11.0,100,0.00,,-RA,1.04,VWS V14.01,2013-01-29 10:24:00,
2013-01-29 04:29:00,40.1,40.1,28.52,SE,146,3.0,11.0,100,0.00,,-RA,1.04,VWS V14.01,2013-01-29 10:29:00,
2013-01-29 04:30:00,40.1,40.1,28.52,SE,139,3.0,11.0,100,0.00,,,1.04,VWS V15.00,2013-01-29 10:30:00,
2013-01-29 04:34:00,40.1,40.1,28.52,SSE,151,11.0,11.0,100,0.00,,-RA,0.18,VWS V14.01,2013-01-29 10:34:00,
2013-01-29 04:39:00,40.0,40.0,28.51,SSE,155,11.0,12.0,100,0.00,,-RA,1.04,VWS V14.01,2013-01-29 10:39:00,
2013-01-29 04:40:00,40.0,40.0,28.51,SSE,149,4.0,12.0,100,0.00,,,1.04,VWS V15.00,2013-01-29 10:40:00,
2013-01-29 04:44:00,40.1,40.1,28.51,South,183,2.0,16.0,100,0.00,,-RA,1.04,VWS V14.01,2013-01-29 10:44:00,
2013-01-29 04:49:00,39.9,39.9,28.50,South,189,5.0,16.0,100,0.00,,-RA,1.04,VWS V14.01,2013-01-29 10:49:00,
2013-01-29 04:50:00,39.9,39.9,28.52,South,173,4.0,11.0,100,0.08,,CLR,1.12,VWS V15.00,2013-01-29 10:50:00,
2013-01-29 04:54:00,39.8,39.8,28.50,SE,133,2.0,15.0,100,0.00,,,1.04,VWS V14.01,2013-01-29 10:54:00,
2013-01-29 04:59:00,39.7,39.7,28.50,SSE,164,10.0,16.0,100,0.00,,,1.04,VWS V14.01,2013-01-29 10:59:00,
2013-01-29 05:00:00,39.7,39.7,28.50,SSE,154,5.0,16.0,100,0.00,,,1.04,VWS V15.00,2013-01-29 11:00:00,
2013-01-29 05:04:00,39.7,39.7,28.49,WSW,250,2.0,13.0,100,0.00,,,1.04,VWS V14.01,2013-01-29 11:04:00,
2013-01-29 05:09:00,39.6,39.6,28.51,South,170,5.0,16.0,100,0.00,,-RA,1.04,VWS V14.01,2013-01-29 11:09:00,
2013-01-29 05:10:00,39.6,39.6,28.51,SSE,158,6.0,16.0,100,0.00,,,1.04,VWS V15.00,2013-01-29 11:10:00,
2013-01-29 05:14:00,39.5,39.5,28.51,SE,145,7.0,10.0,100,0.00,,,1.04,VWS V14.01,2013-01-29 11:14:00,
2013-01-29 05:19:00,39.5,39.5,28.51,SE,125,7.0,10.0,100,0.00,,,1.04,VWS V14.01,2013-01-29 11:19:00,
2013-01-29 05:20:00,39.5,39.5,28.51,SSE,153,4.0,10.0,100,0.00,,,1.04,VWS V15.00,2013-01-29 11:20:00,
2013-01-29 05:24:00,39.4,39.4,28.53,SSW,199,4.0,8.0,100,0.01,,,1.05,VWS V14.01,2013-01-29 11:24:00,
2013-01-29 05:29:00,39.4,39.4,28.56,WNW,296,13.0,13.0,100,0.01,,,1.05,VWS V14.01,2013-01-29 11:29:00,
2013-01-29 05:30:00,39.4,39.4,28.56,NW,311,9.0,13.0,100,0.02,,,1.06,VWS V15.00,2013-01-29 11:30:00,
2013-01-29 05:34:00,39.6,39.6,28.55,SE,129,4.0,12.0,100,0.06,,,1.10,VWS V14.01,2013-01-29 11:34:00,
2013-01-29 05:39:00,39.8,39.8,28.53,SSE,164,3.0,12.0,100,0.07,,,1.11,VWS V14.01,2013-01-29 11:39:00,
2013-01-29 05:40:00,39.8,39.8,28.53,SSE,153,6.0,12.0,100,0.07,,,1.11,VWS V15.00,2013-01-29 11:40:00,
2013-01-29 05:44:00,39.7,39.7,28.52,South,176,8.0,9.0,100,0.07,,,1.11,VWS V14.01,2013-01-29 11:44:00,
2013-01-29 05:49:00,39.9,39.9,28.52,SSW,201,3.0,11.0,100,0.08,,,1.12,VWS V14.01,2013-01-29 11:49:00,
2013-01-29 05:50:00,39.9,39.9,28.52,South,173,4.0,11.0,100,0.08,,,1.12,VWS V15.00,2013-01-29 11:50:00,
2013-01-29 05:54:00,40.1,40.1,28.51,SSE,165,7.0,13.0,100,0.08,,,1.12,VWS V14.01,2013-01-29 11:54:00,
2013-01-29 05:59:00,40.5,40.5,28.51,SSE,162,8.0,13.0,100,0.08,,,1.12,VWS V14.01,2013-01-29 11:59:00,
2013-01-29 06:00:00,40.5,40.5,28.51,SSE,166,7.0,13.0,100,0.08,,,1.12,VWS V15.00,2013-01-29 12:00:00,
2013-01-29 06:04:00,40.5,40.5,28.51,South,176,5.0,15.0,100,0.08,,,1.12,VWS V14.01,2013-01-29 12:04:00,
2013-01-29 06:09:00,40.7,40.7,28.51,South,172,8.0,15.0,100,0.08,,,1.12,VWS V14.01,2013-01-29 12:09:00,
2013-01-29 06:10:00,40.7,40.7,28.51,South,176,6.0,15.0,100,0.08,,,1.12,VWS V15.00,2013-01-29 12:10:00,
2013-01-29 06:14:00,40.8,40.8,28.50,SSE,168,8.0,13.0,100,0.08,,,1.12,VWS V14.01,2013-01-29 12:14:00,
2013-01-29 06:19:00,41.0,41.0,28.50,SSE,151,11.0,15.0,100,0.08,,,1.12,VWS V14.01,2013-01-29 12:19:00,
2013-01-29 06:20:00,41.1,41.1,28.50,SSE,166,10.0,15.0,100,0.08,,,1.12,VWS V15.00,2013-01-29 12:20:00,
2013-01-29 06:24:00,41.2,41.2,28.50,SSW,202,2.0,14.0,100,0.08,,,1.12,VWS V14.01,2013-01-29 12:24:00,
2013-01-29 06:29:00,41.3,41.3,28.51,SSE,158,8.0,14.0,100,0.09,,,1.13,VWS V14.01,2013-01-29 12:29:00,
2013-01-29 06:30:00,41.3,41.3,28.51,SSE,156,7.0,14.0,100,0.10,,,1.14,VWS V15.00,2013-01-29 12:30:00,
2013-01-29 06:34:00,41.4,41.4,28.50,SE,142,5.0,12.0,100,0.09,,,1.15,VWS V14.01,2013-01-29 12:34:00,
2013-01-29 06:39:00,41.6,41.6,28.50,South,169,5.0,14.0,100,0.09,,-RA,1.15,VWS V14.01,2013-01-29 12:39:00,
2013-01-29 06:40:00,45.5,45.5,28.48,South,171,8.0,15.0,100,0.07,,CLR,1.21,VWS V15.00,2013-01-29 12:40:00,
2013-01-29 06:44:00,41.8,41.8,28.49,South,171,5.0,15.0,100,0.04,,-RA,1.15,VWS V14.01,2013-01-29 12:44:00,
2013-01-29 06:49:00,42.0,42.0,28.50,SSE,162,5.0,15.0,100,0.04,,-RA,1.15,VWS V14.01,2013-01-29 12:49:00,
2013-01-29 06:50:00,42.0,42.0,28.50,SE,144,9.0,15.0,100,0.04,,,1.15,VWS V15.00,2013-01-29 12:50:00,
2013-01-29 06:54:00,42.1,42.1,28.51,SSE,167,3.0,11.0,100,0.03,,-RA,1.15,VWS V14.01,2013-01-29 12:54:00,
2013-01-29 06:59:00,42.1,42.1,28.50,SSE,148,11.0,11.0,100,0.07,,-RA,1.19,VWS V14.01,2013-01-29 12:59:00,
2013-01-29 07:00:00,42.1,42.1,28.50,SSE,153,6.0,14.0,100,0.08,,,1.20,VWS V15.00,2013-01-29 13:00:00,
2013-01-29 07:04:00,42.4,42.4,28.49,South,170,7.0,14.0,100,0.09,,-RA,1.21,VWS V14.01,2013-01-29 13:04:00,
2013-01-29 07:09:00,43.0,43.0,28.49,SSE,165,10.0,14.0,100,0.09,,-RA,1.21,VWS V14.01,2013-01-29 13:09:00,
2013-01-29 07:10:00,43.1,43.1,28.49,South,178,10.0,14.0,100,0.09,,,1.21,VWS V15.00,2013-01-29 13:10:00,
2013-01-29 07:14:00,43.5,43.5,28.49,SE,144,4.0,18.0,100,0.09,,-RA,1.21,VWS V14.01,2013-01-29 13:14:00,
2013-01-29 07:19:00,43.7,43.7,28.49,South,178,6.0,19.0,100,0.09,,-RA,1.21,VWS V14.01,2013-01-29 13:19:00,
2013-01-29 07:20:00,43.8,43.8,28.49,South,174,9.0,19.0,100,0.09,,,1.21,VWS V15.00,2013-01-29 13:20:00,
2013-01-29 07:24:00,44.3,44.3,28.49,SE,136,7.0,11.0,100,0.09,,-RA,1.21,VWS V14.01,2013-01-29 13:24:00,
2013-01-29 07:29:00,44.7,44.7,28.48,SSE,153,4.0,22.0,100,0.09,,-RA,1.21,VWS V14.01,2013-01-29 13:29:00,
2013-01-29 07:30:00,47.6,47.6,28.48,SSW,199,1.0,16.0,100,0.00,,CLR,1.21,VWS V15.00,2013-01-29 13:30:00,
2013-01-29 07:34:00,45.3,45.3,28.48,South,169,12.0,15.0,100,0.07,,-RA,1.21,VWS V14.01,2013-01-29 13:34:00,
2013-01-29 07:39:00,45.4,45.4,28.48,South,180,6.0,15.0,100,0.07,,,1.21,VWS V14.01,2013-01-29 13:39:00,
2013-01-29 07:40:00,45.5,45.5,28.48,South,171,8.0,15.0,100,0.07,,,1.21,VWS V15.00,2013-01-29 13:40:00,
2013-01-29 07:44:00,45.7,45.7,28.48,SSE,150,2.0,14.0,100,0.06,,,1.21,VWS V14.01,2013-01-29 13:44:00,
2013-01-29 07:49:00,46.1,46.1,28.48,South,175,5.0,19.0,100,0.06,,,1.21,VWS V14.01,2013-01-29 13:49:00,
2013-01-29 07:50:00,48.3,48.3,28.47,South,180,1.0,16.0,100,0.00,,CLR,1.21,VWS V15.00,2013-01-29 13:50:00,
2013-01-29 07:54:00,46.4,46.4,28.48,South,174,6.0,16.0,100,0.06,,,1.21,VWS V14.01,2013-01-29 13:54:00,
2013-01-29 07:59:00,46.6,46.6,28.48,SSE,155,6.0,16.0,100,0.06,,,1.21,VWS V14.01,2013-01-29 13:59:00,
2013-01-29 08:00:00,46.6,46.6,28.48,South,171,13.0,16.0,100,0.06,,,1.21,VWS V15.00,2013-01-29 14:00:00,
2013-01-29 08:04:00,46.9,46.9,28.49,SSE,168,8.0,13.0,100,0.01,,,1.21,VWS V14.01,2013-01-29 14:04:00,
2013-01-29 08:09:00,47.0,47.0,28.49,South,180,4.0,15.0,100,0.01,,,1.21,VWS V14.01,2013-01-29 14:09:00,
2013-01-29 08:10:00,47.1,47.1,28.49,South,172,8.0,15.0,100,0.01,,,1.21,VWS V15.00,2013-01-29 14:10:00,
2013-01-29 08:14:00,47.2,47.2,28.48,South,173,5.0,15.0,100,0.00,,,1.21,VWS V14.01,2013-01-29 14:14:00,
2013-01-29 08:19:00,47.3,47.3,28.48,SE,144,5.0,15.0,100,0.00,,,1.21,VWS V14.01,2013-01-29 14:19:00,
2013-01-29 08:20:00,49.5,49.5,28.46,SSE,163,5.0,13.0,100,0.00,,CLR,1.21,VWS V15.00,2013-01-29 14:20:00,
2013-01-29 08:24:00,47.5,47.5,28.48,SSE,150,4.0,16.0,100,0.00,,,1.21,VWS V14.01,2013-01-29 14:24:00,
2013-01-29 08:29:00,47.6,47.6,28.48,SE,140,2.0,16.0,100,0.00,,,1.21,VWS V14.01,2013-01-29 14:29:00,
2013-01-29 08:30:00,47.6,47.6,28.48,SSW,199,1.0,16.0,100,0.00,,,1.21,VWS V15.00,2013-01-29 14:30:00,
2013-01-29 08:34:00,47.7,47.7,28.48,South,185,1.0,15.0,100,0.00,,,1.21,VWS V14.01,2013-01-29 14:34:00,
2013-01-29 08:39:00,47.7,47.7,28.47,SSE,154,12.0,15.0,100,0.00,,,1.21,VWS V14.01,2013-01-29 14:39:00,
2013-01-29 08:40:00,50.3,50.3,28.47,SSE,167,1.0,13.0,100,0.00,,CLR,1.21,VWS V15.00,2013-01-29 14:40:00,
2013-01-29 08:44:00,48.1,48.1,28.47,SSE,157,6.0,14.0,100,0.00,,,1.21,VWS V14.01,2013-01-29 14:44:00,
2013-01-29 08:49:00,48.3,48.3,28.47,South,186,5.0,16.0,100,0.00,,,1.21,VWS V14.01,2013-01-29 14:49:00,
2013-01-29 08:50:00,48.3,48.3,28.47,South,180,1.0,16.0,100,0.00,,,1.21,VWS V15.00,2013-01-29 14:50:00,
2013-01-29 08:54:00,48.5,48.5,28.47,South,179,6.0,12.0,100,0.00,,,1.21,VWS V14.01,2013-01-29 14:54:00,
2013-01-29 08:59:00,48.7,48.7,28.47,South,174,4.0,14.0,100,0.00,,,1.21,VWS V14.01,2013-01-29 14:59:00,
2013-01-29 09:00:00,48.8,48.8,28.47,SE,143,5.0,14.0,100,0.00,,,1.21,VWS V15.00,2013-01-29 15:00:00,
2013-01-29 09:04:00,48.9,48.9,28.46,SSE,154,0.0,10.0,100,0.00,,,1.21,VWS V14.01,2013-01-29 15:04:00,
2013-01-29 09:09:00,49.0,49.0,28.46,South,179,12.0,12.0,100,0.00,,,1.21,VWS V14.01,2013-01-29 15:09:00,
2013-01-29 09:10:00,49.1,49.1,28.46,South,182,2.0,12.0,100,0.00,,,1.21,VWS V15.00,2013-01-29 15:10:00,
2013-01-29 09:14:00,49.3,49.3,28.46,SSE,162,7.0,13.0,100,0.00,,,1.21,VWS V14.01,2013-01-29 15:14:00,
2013-01-29 09:19:00,49.5,49.5,28.46,SSE,149,1.0,13.0,100,0.00,,,1.21,VWS V14.01,2013-01-29 15:19:00,
2013-01-29 09:20:00,49.5,49.5,28.46,SSE,163,5.0,13.0,100,0.00,,,1.21,VWS V15.00,2013-01-29 15:20:00,
2013-01-29 09:24:00,49.7,49.7,28.46,SSE,155,3.0,15.0,100,0.00,,,1.21,VWS V14.01,2013-01-29 15:24:00,
2013-01-29 09:29:00,50.0,50.0,28.46,South,178,4.0,15.0,100,0.00,,,1.21,VWS V14.01,2013-01-29 15:29:00,
2013-01-29 09:30:00,51.7,51.7,28.47,SW,217,4.0,25.0,100,0.00,,CLR,1.21,VWS V15.00,2013-01-29 15:30:00,
2013-01-29 09:34:00,50.3,50.3,28.45,South,171,4.0,12.0,100,0.00,,,1.21,VWS V14.01,2013-01-29 15:34:00,
2013-01-29 09:39:00,50.3,50.3,28.47,South,176,7.0,13.0,100,0.00,,,1.21,VWS V14.01,2013-01-29 15:39:00,
2013-01-29 09:40:00,50.3,50.3,28.47,SSE,167,1.0,13.0,100,0.00,,,1.21,VWS V15.00,2013-01-29 15:40:00,
2013-01-29 09:44:00,50.3,50.3,28.47,SSE,163,7.0,11.0,100,0.00,,,1.21,VWS V14.01,2013-01-29 15:44:00,
2013-01-29 09:49:00,50.5,50.5,28.47,SSW,207,7.0,14.0,100,0.00,,,1.21,VWS V14.01,2013-01-29 15:49:00,
2013-01-29 09:50:00,50.6,50.6,28.47,South,184,3.0,15.0,100,0.00,,,1.21,VWS V15.00,2013-01-29 15:50:00,
2013-01-29 09:54:00,51.0,51.0,28.46,SSE,153,6.0,13.0,100,0.00,,,1.21,VWS V14.01,2013-01-29 15:54:00,
2013-01-29 09:59:00,51.4,51.4,28.46,SSE,151,5.0,15.0,100,0.00,,,1.21,VWS V14.01,2013-01-29 15:59:00,
2013-01-29 10:00:00,51.4,51.4,28.46,SSW,211,2.0,15.0,100,0.00,,,1.21,VWS V15.00,2013-01-29 16:00:00,
2013-01-29 10:04:00,51.7,51.7,28.46,SSW,193,12.0,15.0,100,0.00,,,1.21,VWS V14.01,2013-01-29 16:04:00,
2013-01-29 10:09:00,51.8,51.8,28.46,SSW,203,6.0,18.0,100,0.00,,,1.21,VWS V14.01,2013-01-29 16:09:00,
2013-01-29 10:10:00,51.8,51.8,28.47,South,191,6.0,18.0,100,0.00,,,1.21,VWS V15.00,2013-01-29 16:10:00,
2013-01-29 10:14:00,51.8,51.8,28.47,SSE,158,11.0,16.0,100,0.00,,,1.21,VWS V14.01,2013-01-29 16:14:00,
2013-01-29 10:19:00,51.8,51.8,28.47,South,191,5.0,17.0,100,0.00,,,1.21,VWS V14.01,2013-01-29 16:19:00,
2013-01-29 10:20:00,51.8,51.8,28.47,SSW,193,9.0,17.0,100,0.00,,,1.21,VWS V15.00,2013-01-29 16:20:00,
2013-01-29 10:24:00,51.7,51.7,28.48,SSW,195,6.0,17.0,100,0.00,,,1.21,VWS V14.01,2013-01-29 16:24:00,
2013-01-29 10:29:00,51.7,51.7,28.47,South,185,15.0,25.0,100,0.00,,,1.21,VWS V14.01,2013-01-29 16:29:00,
2013-01-29 10:30:00,52.5,52.5,28.48,SSW,195,6.0,16.0,100,0.00,,CLR,1.21,VWS V15.00,2013-01-29 16:30:00,
2013-01-29 10:34:00,51.7,51.7,28.48,South,177,6.0,24.0,100,0.00,,,1.21,VWS V14.01,2013-01-29 16:34:00,
2013-01-29 10:39:00,51.5,51.5,28.47,South,186,8.0,24.0,100,0.00,,,1.21,VWS V14.01,2013-01-29 16:39:00,
2013-01-29 10:40:00,51.5,51.5,28.47,ESE,122,3.0,24.0,100,0.00,,,1.21,VWS V15.00,2013-01-29 16:40:00,
2013-01-29 10:44:00,51.5,51.5,28.47,SSW,195,11.0,18.0,100,0.00,,,1.21,VWS V14.01,2013-01-29 16:44:00,
2013-01-29 10:49:00,51.6,51.6,28.48,South,184,18.0,20.0,100,0.00,,,1.21,VWS V14.01,2013-01-29 16:49:00,
2013-01-29 10:50:00,51.6,51.6,28.48,SSW,198,4.0,20.0,100,0.00,,,1.21,VWS V15.00,2013-01-29 16:50:00,
2013-01-29 10:54:00,51.8,51.8,28.48,SSW,200,6.0,15.0,100,0.00,,,1.21,VWS V14.01,2013-01-29 16:54:00,
2013-01-29 10:59:00,51.8,51.8,28.48,SSW,194,6.0,15.0,100,0.00,,,1.21,VWS V14.01,2013-01-29 16:59:00,
2013-01-29 11:00:00,51.8,51.8,28.48,South,191,5.0,15.0,100,0.00,,,1.21,VWS V15.00,2013-01-29 17:00:00,
2013-01-29 11:04:00,51.9,51.9,28.48,South,190,5.0,15.0,100,0.00,,,1.21,VWS V14.01,2013-01-29 17:04:00,
2013-01-29 11:09:00,52.0,52.0,28.47,South,184,7.0,17.0,100,0.00,,,1.21,VWS V14.01,2013-01-29 17:09:00,
2013-01-29 11:10:00,52.0,52.0,28.47,SSW,197,8.0,17.0,100,0.00,,,1.21,VWS V15.00,2013-01-29 17:10:00,
2013-01-29 11:14:00,52.1,52.1,28.47,SSW,201,8.0,13.0,100,0.00,,,1.21,VWS V14.01,2013-01-29 17:14:00,
2013-01-29 11:19:00,52.2,52.2,28.47,South,170,5.0,17.0,100,0.00,,,1.21,VWS V14.01,2013-01-29 17:19:00,
2013-01-29 11:20:00,51.4,51.4,28.47,SSW,211,7.0,10.0,100,0.00,,CLR,1.21,VWS V15.00,2013-01-29 17:20:00,
2013-01-29 11:24:00,52.4,52.4,28.48,SSW,206,8.0,16.0,100,0.00,,,1.21,VWS V14.01,2013-01-29 17:24:00,
2013-01-29 11:29:00,52.5,52.5,28.48,South,179,6.0,16.0,100,0.00,,,1.21,VWS V14.01,2013-01-29 17:29:00,
2013-01-29 11:30:00,52.5,52.5,28.48,SSW,195,6.0,16.0,100,0.00,,,1.21,VWS V15.00,2013-01-29 17:30:00,
2013-01-29 11:34:00,52.6,52.6,28.47,SSW,208,5.0,15.0,100,0.00,,,1.21,VWS V14.01,2013-01-29 17:34:00,
2013-01-29 11:39:00,52.6,52.6,28.47,SSW,196,4.0,15.0,100,0.00,,OVC029,1.21,VWS V14.01,2013-01-29 17:39:00,
2013-01-29 11:40:00,52.6,52.6,28.47,SW,227,4.0,15.0,100,0.00,,,1.21,VWS V15.00,2013-01-29 17:40:00,
2013-01-29 11:44:00,52.5,52.5,28.48,South,184,3.0,15.0,100,0.00,,OVC029,1.21,VWS V14.01,2013-01-29 17:44:00,
2013-01-29 11:49:00,52.2,52.2,28.48,South,182,5.0,15.0,100,0.00,,OVC029,1.21,VWS V14.01,2013-01-29 17:49:00,
2013-01-29 11:50:00,52.2,52.2,28.48,South,190,7.0,15.0,100,0.00,,,1.21,VWS V15.00,2013-01-29 17:50:00,
2013-01-29 11:54:00,52.0,52.0,28.48,SSW,195,5.0,11.0,100,0.00,,OVC029,1.21,VWS V14.01,2013-01-29 17:54:00,
2013-01-29 11:59:00,51.8,51.8,28.48,SSW,199,5.0,11.0,100,0.00,,OVC029,1.21,VWS V14.01,2013-01-29 17:59:00,
2013-01-29 12:00:00,51.7,51.7,28.48,SSW,197,6.0,11.0,100,0.00,,,1.21,VWS V15.00,2013-01-29 18:00:00,
2013-01-29 12:04:00,51.6,51.6,28.48,South,188,4.0,11.0,100,0.00,,OVC029,1.21,VWS V14.01,2013-01-29 18:04:00,
2013-01-29 12:09:00,51.5,51.5,28.48,South,186,4.0,11.0,100,0.00,,OVC029,1.21,VWS V14.01,2013-01-29 18:09:00,
2013-01-29 12:10:00,51.5,51.5,28.48,SSW,206,3.0,11.0,100,0.00,,,1.21,VWS V15.00,2013-01-29 18:10:00,
2013-01-29 12:14:00,51.5,51.5,28.48,SSW,206,5.0,10.0,100,0.00,,OVC029,1.21,VWS V14.01,2013-01-29 18:14:00,
2013-01-29 12:19:00,51.4,51.4,28.47,SSW,202,5.0,10.0,100,0.00,,OVC029,1.21,VWS V14.01,2013-01-29 18:19:00,
2013-01-29 12:20:00,51.4,51.4,28.47,SSW,211,7.0,10.0,100,0.00,,,1.21,VWS V15.00,2013-01-29 18:20:00,
2013-01-29 12:24:00,51.3,51.3,28.48,SSW,211,5.0,12.0,100,0.00,,OVC029,1.21,VWS V14.01,2013-01-29 18:24:00,
2013-01-29 12:29:00,51.3,51.3,28.48,SSW,197,6.0,12.0,100,0.00,,OVC029,1.21,VWS V14.01,2013-01-29 18:29:00,
2013-01-29 12:30:00,51.3,51.3,28.48,SW,222,6.0,12.0,100,0.00,,,1.21,VWS V15.00,2013-01-29 18:30:00,
2013-01-29 12:34:00,51.2,51.2,28.48,SSW,198,3.0,11.0,100,0.00,,OVC029,1.21,VWS V14.01,2013-01-29 18:34:00,
2013-01-29 12:39:00,51.2,51.2,28.48,SW,223,4.0,11.0,100,0.00,,OVC013,1.21,VWS V14.01,2013-01-29 18:39:00,
2013-01-29 12:40:00,48.6,48.6,28.46,NW,307,2.0,4.0,100,0.15,,CLR,1.36,VWS V15.00,2013-01-29 18:40:00,
2013-01-29 12:44:00,50.9,50.9,28.47,SSW,193,1.0,8.0,100,0.00,,OVC029,1.21,VWS V14.01,2013-01-29 18:44:00,
2013-01-29 12:49:00,50.8,50.8,28.47,West,264,2.0,8.0,100,0.00,,OVC029,1.21,VWS V14.01,2013-01-29 18:49:00,
2013-01-29 12:50:00,50.7,50.7,28.47,SW,235,2.0,8.0,100,0.00,,,1.21,VWS V15.00,2013-01-29 18:50:00,
2013-01-29 12:54:00,50.8,50.8,28.47,WNW,286,6.0,10.0,100,0.00,,-RA,1.21,VWS V14.01,2013-01-29 18:54:00,
2013-01-29 12:59:00,50.8,50.8,28.48,West,278,11.0,13.0,100,0.03,,-RA,1.24,VWS V14.01,2013-01-29 18:59:00,
2013-01-29 13:00:00,50.8,50.8,28.47,West,273,10.0,13.0,100,0.04,,,1.25,VWS V15.00,2013-01-29 19:00:00,
2013-01-29 13:04:00,50.6,50.6,28.49,WSW,258,8.0,17.0,100,0.08,,-RA,1.29,VWS V14.01,2013-01-29 19:04:00,
2013-01-29 13:09:00,50.3,50.3,28.47,West,265,6.0,17.0,100,0.09,,-RA,1.30,VWS V14.01,2013-01-29 19:09:00,
2013-01-29 13:10:00,50.3,50.3,28.47,West,281,6.0,17.0,100,0.10,,,1.31,VWS V15.00,2013-01-29 19:10:00,
2013-01-29 13:14:00,50.1,50.1,28.46,NW,314,7.0,13.0,100,0.13,,-RA,1.34,VWS V14.01,2013-01-29 19:14:00,
2013-01-29 13:19:00,50.0,50.0,28.45,NW,309,3.0,13.0,100,0.13,,-RA,1.34,VWS V14.01,2013-01-29 19:19:00,
2013-01-29 13:20:00,49.9,49.9,28.46,NNW,329,3.0,13.0,100,0.14,,,1.35,VWS V15.00,2013-01-29 19:20:00,
2013-01-29 13:24:00,49.6,49.6,28.46,North,0,0.0,4.0,100,0.14,,-RA,1.35,VWS V14.01,2013-01-29 19:24:00,
2013-01-29 13:29:00,49.2,49.2,28.46,NNE,27,3.0,4.0,100,0.15,,-RA,1.36,VWS V14.01,2013-01-29 19:29:00,
2013-01-29 13:30:00,47.3,47.3,28.47,WNW,301,8.0,9.0,100,0.16,,CLR,1.51,VWS V15.00,2013-01-29 19:30:00,
2013-01-29 13:34:00,48.9,48.9,28.45,NE,35,0.0,2.0,100,0.15,,-RA,1.36,VWS V14.01,2013-01-29 19:34:00,
2013-01-29 13:39:00,48.6,48.6,28.46,NW,311,3.0,4.0,100,0.15,,,1.36,VWS V14.01,2013-01-29 19:39:00,
2013-01-29 13:40:00,48.6,48.6,28.46,NW,307,2.0,4.0,100,0.15,,,1.36,VWS V15.00,2013-01-29 19:40:00,
2013-01-29 13:44:00,48.4,48.4,28.47,WNW,303,0.0,5.0,100,0.16,,,1.37,VWS V14.01,2013-01-29 19:44:00,
2013-01-29 13:49:00,48.2,48.2,28.47,WNW,303,0.0,5.0,100,0.17,,,1.38,VWS V14.01,2013-01-29 19:49:00,
2013-01-29 13:50:00,48.2,48.2,28.48,WNW,303,0.0,5.0,100,0.17,,,1.38,VWS V15.00,2013-01-29 19:50:00,
2013-01-29 13:54:00,48.1,48.1,28.48,WNW,303,2.0,3.0,100,0.19,,,1.40,VWS V14.01,2013-01-29 19:54:00,
2013-01-29 13:58:00,47.8,47.8,28.49,South,187,1.0,4.0,100,0.21,,,1.42,VWS V14.01,2013-01-29 19:58:00,
2013-01-29 14:00:00,47.8,47.8,28.49,ESE,119,0.0,4.0,100,0.22,,,1.43,VWS V15.00,2013-01-29 20:00:00,
2013-01-29 14:03:00,47.6,47.6,28.48,ESE,120,0.0,1.0,100,0.20,,,0.18,VWS V14.01,2013-01-29 20:03:00,
2013-01-29 14:08:00,47.4,47.4,28.48,SSW,193,0.0,2.0,100,0.22,,,1.47,VWS V14.01,2013-01-29 20:08:00,
2013-01-29 14:10:00,47.4,47.4,28.48,SSW,193,0.0,2.0,100,0.23,,,1.48,VWS V15.00,2013-01-29 20:10:00,
2013-01-29 14:13:00,47.5,47.5,28.47,SW,222,2.0,3.0,100,0.18,,,1.49,VWS V14.01,2013-01-29 20:13:00,
2013-01-29 14:18:00,47.5,47.5,28.47,NW,305,4.0,5.0,100,0.18,,,1.49,VWS V14.01,2013-01-29 20:18:00,
2013-01-29 14:20:00,44.5,44.5,28.46,West,273,3.0,7.0,100,0.04,,CLR,1.52,VWS V15.00,2013-01-29 20:20:00,
2013-01-29 14:23:00,47.5,47.5,28.47,NW,324,6.0,7.0,100,0.15,,,1.50,VWS V14.01,2013-01-29 20:23:00,
2013-01-29 14:28:00,47.4,47.4,28.47,NW,322,6.0,9.0,100,0.16,,,1.51,VWS V14.01,2013-01-29 20:28:00,
2013-01-29 14:30:00,47.3,47.3,28.47,WNW,301,8.0,9.0,100,0.16,,,1.51,VWS V15.00,2013-01-29 20:30:00,
2013-01-29 14:33:00,47.1,47.1,28.46,NW,318,5.0,11.0,100,0.15,,,1.51,VWS V14.01,2013-01-29 20:33:00,
2013-01-29 14:38:00,46.8,46.8,28.45,North,358,4.0,11.0,100,0.15,,,1.51,VWS V14.01,2013-01-29 20:38:00,
2013-01-29 14:40:00,46.7,46.7,28.45,North,2,4.0,11.0,100,0.15,,,1.51,VWS V15.00,2013-01-29 20:40:00,
2013-01-29 14:43:00,46.4,46.4,28.46,NNW,338,5.0,8.0,100,0.15,,,1.51,VWS V14.01,2013-01-29 20:43:00,
2013-01-29 14:48:00,46.0,46.0,28.46,NNW,346,6.0,9.0,100,0.16,,,0.18,VWS V14.01,2013-01-29 20:48:00,
2013-01-29 14:50:00,45.9,45.9,28.45,North,358,5.0,9.0,100,0.16,,,1.52,VWS V15.00,2013-01-29 20:50:00,
2013-01-29 14:53:00,45.6,45.6,28.46,NNW,345,4.0,7.0,100,0.14,,,1.52,VWS V14.01,2013-01-29 20:53:00,
2013-01-29 14:58:00,45.3,45.3,28.46,NW,318,7.0,8.0,100,0.14,,,1.52,VWS V14.01,2013-01-29 20:58:00,
2013-01-29 15:00:00,43.7,43.7,28.46,North,352,4.0,7.0,100,0.00,,CLR,1.52,VWS V15.00,2013-01-29 21:00:00,
2013-01-29 15:03:00,45.1,45.1,28.46,NW,318,5.0,8.0,100,0.09,,RA,1.52,VWS V14.01,2013-01-29 21:03:00,
2013-01-29 15:08:00,44.9,44.9,28.46,NNW,327,4.0,8.0,100,0.09,,RA,1.52,VWS V14.01,2013-01-29 21:08:00,
2013-01-29 15:10:00,44.8,44.8,28.46,NW,313,3.0,8.0,100,0.09,,,1.52,VWS V15.00,2013-01-29 21:10:00,
2013-01-29 15:13:00,44.7,44.7,28.47,WNW,300,4.0,7.0,100,0.04,,RA,1.52,VWS V14.01,2013-01-29 21:13:00,
2013-01-29 15:18:00,44.5,44.5,28.46,NNW,337,3.0,7.0,100,0.04,,RA,1.52,VWS V14.01,2013-01-29 21:18:00,
2013-01-29 15:20:00,44.5,44.5,28.46,West,273,3.0,7.0,100,0.04,,,1.52,VWS V15.00,2013-01-29 21:20:00,
2013-01-29 15:23:00,44.4,44.4,28.46,NW,308,3.0,8.0,100,0.02,,RA,1.52,VWS V14.01,2013-01-29 21:23:00,
2013-01-29 15:28:00,44.3,44.3,28.45,NNW,336,3.0,8.0,100,0.02,,RA,1.52,VWS V14.01,2013-01-29 21:28:00,
2013-01-29 15:30:00,44.2,44.2,28.45,NNW,336,1.0,8.0,100,0.02,,,1.52,VWS V15.00,2013-01-29 21:30:00,
2013-01-29 15:33:00,44.2,44.2,28.45,NNW,336,1.0,1.0,100,0.01,,RA,1.52,VWS V14.01,2013-01-29 21:33:00,
2013-01-29 15:38:00,44.1,44.1,28.44,North,0,0.0,4.0,100,0.01,,-RA,1.52,VWS V14.01,2013-01-29 21:38:00,
2013-01-29 15:40:00,41.7,41.7,28.44,North,4,3.0,11.0,100,0.00,,CLR,1.52,VWS V15.00,2013-01-29 21:40:00,
2013-01-29 15:43:00,44.0,44.0,28.44,North,0,0.0,4.0,100,0.01,,-RA,1.52,VWS V14.01,2013-01-29 21:43:00,
2013-01-29 15:48:00,43.9,43.9,28.44,NNW,331,4.0,6.0,100,0.01,,-RA,1.52,VWS V14.01,2013-01-29 21:48:00,
2013-01-29 15:50:00,43.9,43.9,28.45,NNW,333,6.0,7.0,100,0.01,,,1.52,VWS V15.00,2013-01-29 21:50:00,
2013-01-29 15:53:00,43.8,43.8,28.46,NW,324,4.0,7.0,100,0.00,,-RA,1.52,VWS V14.01,2013-01-29 21:53:00,
2013-01-29 15:58:00,43.7,43.7,28.46,NNW,333,3.0,7.0,100,0.00,,-RA,1.52,VWS V14.01,2013-01-29 21:58:00,
2013-01-29 16:00:00,43.7,43.7,28.46,North,352,4.0,7.0,100,0.00,,,1.52,VWS V15.00,2013-01-29 22:00:00,
2013-01-29 16:03:00,43.7,43.7,28.46,North,359,3.0,8.0,100,0.00,,-RA,1.52,VWS V14.01,2013-01-29 22:03:00,
2013-01-29 16:08:00,43.5,43.5,28.46,NW,319,9.0,11.0,100,0.00,,-RA,1.52,VWS V14.01,2013-01-29 22:08:00,
2013-01-29 16:10:00,43.5,43.5,28.46,NNW,328,8.0,11.0,100,0.00,,,1.52,VWS V15.00,2013-01-29 22:10:00,
2013-01-29 16:13:00,43.3,43.3,28.45,NNW,339,7.0,11.0,100,0.00,,-RA,1.52,VWS V14.01,2013-01-29 22:13:00,
2013-01-29 16:18:00,43.0,43.0,28.46,NNW,348,7.0,12.0,100,0.00,,-RA,1.52,VWS V14.01,2013-01-29 22:18:00,
2013-01-29 16:20:00,42.9,42.9,28.46,NNW,336,7.0,12.0,100,0.00,,,1.52,VWS V15.00,2013-01-29 22:20:00,
2013-01-29 16:23:00,42.7,42.7,28.46,North,355,5.0,9.0,100,0.00,,-RA,1.52,VWS V14.01,2013-01-29 22:23:00,
2013-01-29 16:28:00,42.4,42.4,28.45,North,354,6.0,9.0,100,0.00,,-RA,1.52,VWS V14.01,2013-01-29 22:28:00,
2013-01-29 16:30:00,39.7,39.7,28.44,North,3,4.0,9.0,100,0.04,,CLR,1.56,VWS V15.00,2013-01-29 22:30:00,
2013-01-29 16:33:00,42.1,42.1,28.44,North,8,9.0,11.0,100,0.00,,-RA,1.52,VWS V14.01,2013-01-29 22:33:00,
2013-01-29 16:38:00,41.7,41.7,28.44,North,4,3.0,11.0,100,0.00,,-RA,1.52,VWS V14.01,2013-01-29 22:38:00,
2013-01-29 16:40:00,41.7,41.7,28.44,North,4,3.0,11.0,100,0.00,,,1.52,VWS V15.00,2013-01-29 22:40:00,
2013-01-29 16:43:00,41.6,41.6,28.45,NNW,340,6.0,9.0,100,0.00,,-RA,1.52,VWS V14.01,2013-01-29 22:43:00,
2013-01-29 16:48:00,41.3,41.3,28.45,North,351,7.0,9.0,100,0.01,,-RA,1.53,VWS V14.01,2013-01-29 22:48:00,
2013-01-29 16:50:00,41.3,41.3,28.45,North,7,8.0,9.0,100,0.01,,,1.53,VWS V15.00,2013-01-29 22:50:00,
2013-01-29 16:53:00,41.1,41.1,28.44,North,5,4.0,9.0,100,0.01,,-RA,1.53,VWS V14.01,2013-01-29 22:53:00,
2013-01-29 16:58:00,40.7,40.7,28.45,North,9,3.0,11.0,100,0.01,,-RA,1.53,VWS V14.01,2013-01-29 22:58:00,
2013-01-29 17:00:00,40.7,40.7,28.45,North,0,5.0,11.0,100,0.02,,,1.54,VWS V15.00,2013-01-29 23:00:00,
2013-01-29 17:03:00,40.6,40.6,28.45,NNE,19,4.0,7.0,100,0.02,,-RA,1.54,VWS V14.01,2013-01-29 23:03:00,
2013-01-29 17:08:00,40.3,40.3,28.44,NNE,15,9.0,9.0,100,0.02,,-RA,1.54,VWS V14.01,2013-01-29 23:08:00,
2013-01-29 17:10:00,40.3,40.3,28.44,North,11,4.0,9.0,100,0.02,,,1.54,VWS V15.00,2013-01-29 23:10:00,
2013-01-29 17:13:00,40.1,40.1,28.44,North,1,3.0,8.0,100,0.03,,-RA,1.55,VWS V14.01,2013-01-29 23:13:00,
2013-01-29 17:18:00,39.9,39.9,28.44,North,8,3.0,8.0,100,0.03,,-RA,1.55,VWS V14.01,2013-01-29 23:18:00,
2013-01-29 17:20:00,39.9,39.9,28.44,North,11,3.0,8.0,100,0.03,,,1.55,VWS V15.00,2013-01-29 23:20:00,
2013-01-29 17:23:00,39.8,39.8,28.44,North,8,3.0,7.0,100,0.03,,-RA,1.55,VWS V14.01,2013-01-29 23:23:00,
2013-01-29 17:28:00,39.7,39.7,28.44,North,1,6.0,9.0,100,0.03,,-RA,1.55,VWS V14.01,2013-01-29 23:28:00,
2013-01-29 17:30:00,39.7,39.7,28.44,North,3,4.0,9.0,100,0.04,,,1.56,VWS V15.00,2013-01-29 23:30:00,
2013-01-29 17:33:00,39.6,39.6,28.45,North,9,3.0,8.0,100,0.04,,-RA,1.56,VWS V14.01,2013-01-29 23:33:00,
2013-01-29 17:38:00,39.5,39.5,28.46,North,9,4.0,8.0,100,0.04,,-RA,1.56,VWS V14.01,2013-01-29 23:38:00,
2013-01-29 17:40:00,39.4,39.4,28.45,North,355,6.0,8.0,100,0.04,,,1.56,VWS V15.00,2013-01-29 23:40:00,
2013-01-29 17:43:00,39.4,39.4,28.45,North,353,4.0,8.0,100,0.04,,-RA,1.56,VWS V14.01,2013-01-29 23:43:00,
2013-01-29 17:48:00,39.1,39.1,28.45,North,11,9.0,9.0,100,0.04,,-RA,1.56,VWS V14.01,2013-01-29 23:48:00,
2013-01-29 17:50:00,39.1,39.1,28.44,NNW,342,9.0,11.0,100,0.04,,,1.56,VWS V15.00,2013-01-29 23:50:00,
2013-01-29 17:53:00,38.9,38.9,28.44,North,6,6.0,10.0,100,0.04,,-RA,1.57,VWS V14.01,2013-01-29 23:53:00,
2013-01-29 17:58:00,38.8,38.8,28.44,North,5,4.0,10.0,100,0.04,,-RA,1.57,VWS V14.01,2013-01-29 23:58:00,
2013-01-29 18:00:00,38.8,38.8,28.45,North,354,7.0,10.0,100,0.04,,,1.57,VWS V15.00,2013-01-30 00:00:00,
2013-01-29 18:03:00,38.6,38.6,28.45,North,2,7.0,10.0,100,0.03,,-RA,1.57,VWS V14.01,2013-01-30 00:03:00,
2013-01-29 18:08:00,38.4,38.4,28.45,NNE,18,8.0,10.0,100,0.03,,-RA,1.57,VWS V14.01,2013-01-30 00:08:00,
2013-01-29 18:10:00,38.4,38.4,28.45,NNE,15,7.0,10.0,100,0.03,,,1.57,VWS V15.00,2013-01-30 00:10:00,
2013-01-29 18:13:00,38.2,38.2,28.46,North,9,4.0,12.0,100,0.03,,-RA,1.57,VWS V14.01,2013-01-30 00:13:00,
2013-01-29 18:18:00,37.9,37.9,28.46,North,0,7.0,13.0,100,0.04,,-RA,1.58,VWS V14.01,2013-01-30 00:18:00,
2013-01-29 18:20:00,37.9,37.9,28.45,NNE,17,6.0,13.0,100,0.04,,,1.58,VWS V15.00,2013-01-30 00:20:00,
2013-01-29 18:23:00,37.8,37.8,28.45,North,355,2.0,12.0,100,0.03,,-RA,1.58,VWS V14.01,2013-01-30 00:23:00,
2013-01-29 18:28:00,37.5,37.5,28.45,North,358,7.0,12.0,100,0.03,,-RA,1.58,VWS V14.01,2013-01-30 00:28:00,
2013-01-29 18:30:00,37.5,37.5,28.45,North,359,9.0,12.0,100,0.03,,,1.58,VWS V15.00,2013-01-30 00:30:00,
2013-01-29 18:33:00,37.3,37.3,28.45,North,11,7.0,11.0,100,0.02,,-RA,1.58,VWS V14.01,2013-01-30 00:33:00,
2013-01-29 18:38:00,37.1,37.1,28.45,North,6,9.0,11.0,100,0.03,,-RA,1.59,VWS V14.01,2013-01-30 00:38:00,
2013-01-29 18:40:00,37.1,37.1,28.45,NNE,15,9.0,11.0,100,0.03,,,1.59,VWS V15.00,2013-01-30 00:40:00,
2013-01-29 18:43:00,36.9,36.9,28.45,North,354,4.0,11.0,100,0.03,,-RA,1.59,VWS V14.01,2013-01-30 00:43:00,
2013-01-29 18:48:00,36.8,36.8,28.46,NNE,17,3.0,11.0,100,0.03,,-RA,1.59,VWS V14.01,2013-01-30 00:48:00,
2013-01-29 18:50:00,36.7,36.7,28.46,NNE,14,8.0,11.0,100,0.03,,,1.59,VWS V15.00,2013-01-30 00:50:00,
2013-01-29 18:53:00,36.6,36.6,28.46,North,10,5.0,10.0,100,0.03,,-RA,1.59,VWS V14.01,2013-01-30 00:53:00,
2013-01-29 18:58:00,36.5,36.5,28.45,NNE,22,3.0,10.0,100,0.03,,-RA,1.59,VWS V14.01,2013-01-30 00:58:00,
2013-01-29 19:00:00,36.5,36.5,28.45,North,359,4.0,10.0,100,0.03,,,1.59,VWS V15.00,2013-01-30 01:00:00,
2013-01-29 19:03:00,36.4,36.4,28.46,North,1,5.0,7.0,100,0.02,,-RA,1.59,VWS V14.01,2013-01-30 01:03:00,
2013-01-29 19:08:00,36.2,36.2,28.47,North,5,12.0,12.0,100,0.02,,-RA,1.59,VWS V14.01,2013-01-30 01:08:00,
2013-01-29 19:10:00,36.2,36.2,28.47,North,2,7.0,12.0,100,0.02,,,1.59,VWS V15.00,2013-01-30 01:10:00,
2013-01-29 19:13:00,36.1,36.1,28.46,North,8,7.0,13.0,100,0.02,,-RA,1.59,VWS V14.01,2013-01-30 01:13:00,
2013-01-29 19:18:00,36.0,36.0,28.46,North,2,8.0,13.0,100,0.02,,-RA,1.59,VWS V14.01,2013-01-30 01:18:00,
2013-01-29 19:20:00,36.0,36.0,28.46,North,7,5.0,13.0,100,0.02,,,1.59,VWS V15.00,2013-01-30 01:20:00,
2013-01-29 19:23:00,36.0,36.0,28.46,North,1,6.0,9.0,100,0.01,,-RA,1.59,VWS V14.01,2013-01-30 01:23:00,
2013-01-29 19:28:00,35.8,35.8,28.47,NW,324,5.0,9.0,100,0.01,,-RA,1.59,VWS V14.01,2013-01-30 01:28:00,
2013-01-29 19:30:00,34.6,34.6,28.44,North,354,10.0,13.0,100,0.00,,CLR,1.59,VWS V15.00,2013-01-30 01:30:00,
2013-01-29 19:33:00,35.8,35.8,28.46,North,0,8.0,9.0,100,0.01,,-RA,1.59,VWS V14.01,2013-01-30 01:33:00,
2013-01-29 19:38:00,35.7,35.7,28.46,North,1,5.0,9.0,100,0.01,,-RA,1.59,VWS V14.01,2013-01-30 01:38:00,
2013-01-29 19:40:00,35.6,35.6,28.46,NNE,13,6.0,9.0,100,0.01,,,1.59,VWS V15.00,2013-01-30 01:40:00,
2013-01-29 19:43:00,35.5,35.5,28.46,North,0,5.0,7.0,100,0.00,,-RA,1.59,VWS V14.01,2013-01-30 01:43:00,
2013-01-29 19:48:00,35.5,35.5,28.46,North,0,4.0,9.0,100,0.00,,-RA,1.59,VWS V14.01,2013-01-30 01:48:00,
2013-01-29 19:50:00,35.5,35.5,28.46,North,0,7.0,9.0,100,0.00,,,1.59,VWS V15.00,2013-01-30 01:50:00,
2013-01-29 19:53:00,35.3,35.3,28.46,North,3,4.0,9.0,100,0.00,,-RA,1.59,VWS V14.01,2013-01-30 01:53:00,
2013-01-29 19:58:00,35.3,35.3,28.46,North,359,4.0,11.0,100,0.00,,-RA,1.59,VWS V14.01,2013-01-30 01:58:00,
2013-01-29 20:00:00,35.3,35.3,28.46,NNE,22,4.0,11.0,100,0.00,,,1.59,VWS V15.00,2013-01-30 02:00:00,
2013-01-29 20:03:00,35.2,35.2,28.46,North,3,8.0,9.0,100,0.00,,-RA,1.59,VWS V14.01,2013-01-30 02:03:00,
2013-01-29 20:08:00,35.1,35.1,28.46,NNW,346,6.0,9.0,100,0.00,,-RA,1.59,VWS V14.01,2013-01-30 02:08:00,
2013-01-29 20:10:00,34.0,34.0,28.45,North,8,3.0,14.0,100,0.02,,CLR,1.61,VWS V15.00,2013-01-30 02:10:00,
2013-01-29 20:13:00,35.0,35.0,28.46,North,1,8.0,11.0,100,0.00,,-RA,1.59,VWS V14.01,2013-01-30 02:13:00,
2013-01-29 20:18:00,34.9,34.9,28.45,North,354,11.0,13.0,100,0.00,,-RA,1.59,VWS V14.01,2013-01-30 02:18:00,
2013-01-29 20:20:00,34.9,34.9,28.45,North,9,8.0,14.0,100,0.00,,,1.59,VWS V15.00,2013-01-30 02:20:00,
2013-01-29 20:23:00,34.8,34.8,28.45,NNE,23,13.0,13.0,100,0.00,,-RA,1.59,VWS V14.01,2013-01-30 02:23:00,
2013-01-29 20:28:00,34.7,34.7,28.45,NNE,12,8.0,13.0,100,0.00,,-RA,1.59,VWS V14.01,2013-01-30 02:28:00,
2013-01-29 20:30:00,34.6,34.6,28.44,North,354,10.0,13.0,100,0.00,,,1.59,VWS V15.00,2013-01-30 02:30:00,
2013-01-29 20:33:00,34.5,34.5,28.45,North,355,9.0,13.0,100,0.00,,-RA,1.59,VWS V14.01,2013-01-30 02:33:00,
2013-01-29 20:38:00,34.4,34.4,28.47,NNE,12,6.0,13.0,100,0.00,,-RA,1.59,VWS V14.01,2013-01-30 02:38:00,
2013-01-29 20:40:00,34.4,34.4,28.47,North,8,5.0,13.0,100,0.00,,,1.59,VWS V15.00,2013-01-30 02:40:00,
2013-01-29 20:43:00,34.3,34.3,28.46,North,350,9.0,9.0,100,0.00,,-RA,1.59,VWS V14.01,2013-01-30 02:43:00,
2013-01-29 20:48:00,34.3,34.3,28.45,North,11,8.0,13.0,100,0.01,,-RA,1.60,VWS V14.01,2013-01-30 02:48:00,
2013-01-29 20:50:00,34.3,34.3,28.45,North,351,2.0,13.0,100,0.01,,,1.60,VWS V15.00,2013-01-30 02:50:00,
2013-01-29 20:53:00,34.2,34.2,28.45,North,1,7.0,13.0,100,0.01,,-RA,1.60,VWS V14.01,2013-01-30 02:53:00,
2013-01-29 20:58:00,34.2,34.2,28.44,North,0,8.0,13.0,100,0.01,,-RA,1.60,VWS V14.01,2013-01-30 02:58:00,
2013-01-29 21:00:00,34.1,34.1,28.44,North,0,8.0,13.0,100,0.01,,,1.60,VWS V15.00,2013-01-30 03:00:00,
2013-01-29 21:03:00,34.1,34.1,28.44,North,7,12.0,14.0,100,0.02,,-RA,1.61,VWS V14.01,2013-01-30 03:03:00,
2013-01-29 21:08:00,34.0,34.0,28.44,NNW,342,4.0,14.0,100,0.02,,-RA,1.61,VWS V14.01,2013-01-30 03:08:00,
2013-01-29 21:10:00,33.6,33.6,28.44,North,8,4.0,9.0,100,0.03,,CLR,1.63,VWS V15.00,2013-01-30 03:10:00,
2013-01-29 21:13:00,33.9,33.9,28.45,North,5,9.0,11.0,100,0.02,,-RA,1.61,VWS V14.01,2013-01-30 03:13:00,
2013-01-29 21:18:00,33.9,33.9,28.45,North,350,8.0,12.0,100,0.02,,-RA,1.61,VWS V14.01,2013-01-30 03:18:00,
2013-01-29 21:20:00,33.8,33.8,28.45,North,0,4.0,12.0,100,0.02,,,1.61,VWS V15.00,2013-01-30 03:20:00,
2013-01-29 21:23:00,33.8,33.8,28.46,North,7,5.0,11.0,100,0.02,,-RA,1.61,VWS V14.01,2013-01-30 03:23:00,
2013-01-29 21:28:00,33.7,33.7,28.46,North,5,7.0,11.0,100,0.02,,-RA,1.61,VWS V14.01,2013-01-30 03:28:00,
2013-01-29 21:30:00,33.8,33.8,28.46,North,5,5.0,11.0,100,0.02,,,1.61,VWS V15.00,2013-01-30 03:30:00,
2013-01-29 21:33:00,33.8,33.8,28.46,North,2,8.0,11.0,100,0.02,,-RA,1.61,VWS V14.01,2013-01-30 03:33:00,
2013-01-29 21:38:00,33.7,33.7,28.46,North,0,6.0,11.0,100,0.02,,-RA,1.61,VWS V14.01,2013-01-30 03:38:00,
2013-01-29 21:40:00,33.7,33.7,28.46,North,0,7.0,11.0,100,0.02,,,1.61,VWS V15.00,2013-01-30 03:40:00,
2013-01-29 21:43:00,33.7,33.7,28.46,North,1,4.0,9.0,100,0.02,,-RA,1.61,VWS V14.01,2013-01-30 03:43:00,
2013-01-29 21:48:00,33.7,33.7,28.46,North,4,7.0,9.0,100,0.03,,-RA,1.62,VWS V14.01,2013-01-30 03:48:00,
2013-01-29 21:50:00,33.3,33.3,28.44,NNE,12,7.0,11.0,100,0.03,,CLR,1.64,VWS V15.00,2013-01-30 03:50:00,
2013-01-29 21:53:00,33.6,33.6,28.45,NNE,13,5.0,9.0,100,0.02,,-RA,1.62,VWS V14.01,2013-01-30 03:53:00,
2013-01-29 21:58:00,33.6,33.6,28.45,North,7,7.0,11.0,100,0.02,,-RA,1.62,VWS V14.01,2013-01-30 03:58:00,
2013-01-29 22:00:00,33.6,33.6,28.45,North,7,7.0,11.0,100,0.02,,,1.62,VWS V15.00,2013-01-30 04:00:00,
2013-01-29 22:03:00,33.6,33.6,28.45,North,8,4.0,9.0,100,0.02,,-RA,1.62,VWS V14.01,2013-01-30 04:03:00,
2013-01-29 22:08:00,33.6,33.6,28.45,North,5,5.0,9.0,100,0.03,,-RA,1.63,VWS V14.01,2013-01-30 04:08:00,
2013-01-29 22:10:00,33.4,33.4,28.46,NNE,18,5.0,10.0,100,0.02,,CLR,1.64,VWS V15.00,2013-01-30 04:10:00,
2013-01-29 22:13:00,33.5,33.5,28.44,North,1,6.0,9.0,100,0.02,,-RA,1.63,VWS V14.01,2013-01-30 04:13:00,
2013-01-29 22:18:00,33.5,33.5,28.45,North,6,4.0,11.0,100,0.02,,-RA,1.63,VWS V14.01,2013-01-30 04:18:00,
2013-01-29 22:20:00,33.5,33.5,28.45,North,7,7.0,11.0,100,0.02,,,1.63,VWS V15.00,2013-01-30 04:20:00,
2013-01-29 22:23:00,33.5,33.5,28.44,North,3,7.0,8.0,100,0.03,,-RA,1.64,VWS V14.01,2013-01-30 04:23:00,
2013-01-29 22:28:00,33.4,33.4,28.44,North,352,4.0,9.0,100,0.03,,-RA,1.64,VWS V14.01,2013-01-30 04:28:00,
2013-01-29 22:30:00,33.4,33.4,28.44,North,4,7.0,9.0,100,0.03,,,1.64,VWS V15.00,2013-01-30 04:30:00,
2013-01-29 22:33:00,33.4,33.4,28.43,North,3,4.0,9.0,100,0.03,,-RA,1.64,VWS V14.01,2013-01-30 04:33:00,
2013-01-29 22:38:00,33.4,33.4,28.43,NNE,20,6.0,10.0,100,0.03,,-RA,1.64,VWS V14.01,2013-01-30 04:38:00,
2013-01-29 22:40:00,33.3,33.3,28.44,North,3,6.0,11.0,100,0.01,,CLR,1.65,VWS V15.00,2013-01-30 04:40:00,
2013-01-29 22:43:00,33.4,33.4,28.44,NNE,20,6.0,11.0,100,0.03,,-RA,1.64,VWS V14.01,2013-01-30 04:43:00,
2013-01-29 22:48:00,33.4,33.4,28.44,North,11,8.0,11.0,100,0.03,,-RA,1.64,VWS V14.01,2013-01-30 04:48:00,
2013-01-29 22:50:00,33.3,33.3,28.44,NNE,12,7.0,11.0,100,0.03,,,1.64,VWS V15.00,2013-01-30 04:50:00,
2013-01-29 22:53:00,33.3,33.3,28.45,NNE,23,8.0,13.0,100,0.02,,-RA,1.64,VWS V14.01,2013-01-30 04:53:00,
2013-01-29 22:58:00,33.4,33.4,28.45,North,1,4.0,13.0,100,0.02,,-RA,1.64,VWS V14.01,2013-01-30 04:58:00,
2013-01-29 23:00:00,33.3,33.3,28.45,North,4,4.0,13.0,100,0.02,,,1.64,VWS V15.00,2013-01-30 05:00:00,
2013-01-29 23:01:00,33.4,33.4,28.45,North,357,4.0,6.0,100,0.02,,-RA,1.64,VWS V14.01,2013-01-30 05:01:00,
2013-01-29 23:02:00,33.4,33.4,28.45,North,6,7.0,8.0,100,0.02,,-RA,1.64,VWS V14.01,2013-01-30 05:02:00,
2013-01-29 23:03:00,33.4,33.4,28.45,North,3,7.0,8.0,100,0.02,,-RA,1.64,VWS V14.01,2013-01-30 05:03:00,
2013-01-29 23:08:00,33.4,33.4,28.46,North,351,5.0,8.0,100,0.02,,-RA,1.64,VWS V14.01,2013-01-30 05:08:00,
2013-01-29 23:10:00,33.4,33.4,28.46,NNE,18,5.0,10.0,100,0.02,,,1.64,VWS V15.00,2013-01-30 05:10:00,
2013-01-29 23:13:00,33.4,33.4,28.46,North,1,4.0,8.0,100,0.01,,-RA,1.64,VWS V14.01,2013-01-30 05:13:00,
2013-01-29 23:18:00,33.4,33.4,28.46,North,11,8.0,12.0,100,0.01,,-RA,1.64,VWS V14.01,2013-01-30 05:18:00,
2013-01-29 23:20:00,33.4,33.4,28.46,North,5,7.0,12.0,100,0.01,,,1.64,VWS V15.00,2013-01-30 05:20:00,
2013-01-29 23:23:00,33.4,33.4,28.45,NNW,343,5.0,11.0,100,0.01,,-RA,1.64,VWS V14.01,2013-01-30 05:23:00,
2013-01-29 23:28:00,33.4,33.4,28.45,North,9,11.0,11.0,100,0.02,,-RA,1.65,VWS V14.01,2013-01-30 05:28:00,
2013-01-29 23:30:00,33.3,33.3,28.44,North,8,9.0,11.0,100,0.02,,,1.65,VWS V15.00,2013-01-30 05:30:00,
2013-01-29 23:33:00,33.3,33.3,28.44,North,10,10.0,11.0,100,0.01,,-RA,1.65,VWS V14.01,2013-01-30 05:33:00,
2013-01-29 23:38:00,33.3,33.3,28.44,NNE,24,6.0,11.0,100,0.01,,-RA,1.65,VWS V14.01,2013-01-30 05:38:00,
2013-01-29 23:40:00,33.3,33.3,28.44,North,3,6.0,11.0,100,0.01,,,1.65,VWS V15.00,2013-01-30 05:40:00,
2013-01-29 23:43:00,33.3,33.3,28.45,North,358,10.0,11.0,100,0.02,,-RA,1.66,VWS V14.01,2013-01-30 05:43:00,
2013-01-29 23:48:00,33.3,33.3,28.44,North,358,5.0,11.0,100,0.02,,-RA,1.66,VWS V14.01,2013-01-30 05:48:00,
2013-01-29 23:50:00,33.3,33.3,28.45,NNW,348,5.0,11.0,100,0.02,,,1.66,VWS V15.00,2013-01-30 05:50:00,
2013-01-29 23:53:00,33.3,33.3,28.45,North,2,6.0,9.0,100,0.03,,-RA,1.67,VWS V14.01,2013-01-30 05:53:00,
2013-01-29 23:58:00,33.3,33.3,28.44,NNW,348,7.0,9.0,100,0.03,,-RA,1.67,VWS V14.01,2013-01-30 05:58:00,